Weather History for Hutchinson, MN

Change the Weather History Date:

Thursday, July 18, 2013

  Actual Average Record
Temperature  
Mean Temperature 82 °F -  
Max Temperature 91 °F 86 °F 98 °F (1964)
Min Temperature 72 °F 64 °F 52 °F (1984)
Cooling Degree Days 16    
Growing Degree Days 32 (Base 50)    
Moisture  
Dew Point 71 °F    
Average Humidity 69    
Maximum Humidity 93    
Minimum Humidity 49    
Precipitation  
Precipitation 0.00 in - - ()
Sea Level Pressure  
Sea Level Pressure 29.96 in    
Wind  
Wind Speed 7 mph (SSW)    
Max Wind Speed 17 mph    
Max Gust Speed 24 mph    
Visibility 10 miles    
Events      
Averages and records for this station are not official NWS values.
T = Trace of Precipitation, MM = Missing Value Source: NWS Daily Summary

Daily Weather History Graph

Daily Weather History Graph

Search for Another Location

Airport:

Trip Planner

Search our weather history database for the weather conditions in past years. The results will help you decide how hot, cold, wet, or windy it might be!

Date:

Astronomy

Jul. 18, 2013 Rise Set
Actual Time 5:48 AM CDT 8:58 PM CDT
Civil Twilight 5:13 AM CDT 9:33 PM CDT
Nautical Twilight 4:27 AM CDT 10:19 PM CDT
Astronomical Twilight 3:31 AM CDT 11:14 PM CDT
Moon 4:54 PM CDT (7/18) 1:42 AM CDT (7/18)
Length of Visible Light 16h 20m
Length of Day
15h 09m
Waxing Gibbous, 77% of the Moon is Illuminated
Jul 18
Waxing Gibbous
Jul 22
Full
Jul 29
Last Quarter
Aug 6
New
Aug 14
First Quarter

Hourly Weather History & Observations

Time (CDT) Temp. Heat Index Dew Point Humidity Pressure Visibility Wind Dir Wind Speed Gust Speed Precip Events Conditions
12:14 AM 77.0 °F - 72.5 °F 86% 30.13 in 10.0 mi South 3.5 mph - N/A   Clear
12:33 AM 76.8 °F - 71.8 °F 84% 30.13 in 10.0 mi South 3.5 mph - N/A   Clear
12:54 AM 76.6 °F - 71.6 °F 84% 30.13 in 10.0 mi South 3.5 mph - N/A   Clear
1:14 AM 76.3 °F - 71.1 °F 84% 30.12 in 10.0 mi South 4.6 mph - N/A   Clear
1:33 AM 76.1 °F - 70.9 °F 84% 30.12 in 10.0 mi South 4.6 mph - N/A   Clear
1:54 AM 75.7 °F - 70.9 °F 85% 30.12 in 10.0 mi South 4.6 mph - N/A   Clear
2:13 AM 75.2 °F - 70.9 °F 86% 30.11 in 10.0 mi South 4.6 mph - N/A   Clear
2:34 AM 74.7 °F - 70.7 °F 87% 30.11 in 10.0 mi South 5.8 mph - N/A   Clear
2:54 AM 74.3 °F - 70.7 °F 88% 30.11 in 10.0 mi South 4.6 mph - N/A   Clear
3:14 AM 74.5 °F - 70.5 °F 87% 30.11 in 10.0 mi South 4.6 mph - N/A   Clear
3:33 AM 74.5 °F - 70.2 °F 86% 30.10 in 10.0 mi South 3.5 mph - N/A   Clear
3:54 AM 74.3 °F - 70.2 °F 87% 30.09 in 10.0 mi South 4.6 mph - N/A   Clear
4:13 AM 73.4 °F - 70.0 °F 89% 30.09 in 10.0 mi South 4.6 mph - N/A   Clear
4:34 AM 72.7 °F - 70.0 °F 91% 30.08 in 10.0 mi South 4.6 mph - N/A   Clear
4:54 AM 72.9 °F - 70.0 °F 91% 30.07 in 10.0 mi South 4.6 mph - N/A   Clear
5:13 AM 72.7 °F - 69.8 °F 91% 30.07 in 10.0 mi South 4.6 mph - N/A   Clear
5:34 AM 72.5 °F - 70.0 °F 92% 30.07 in 10.0 mi South 4.6 mph - N/A   Clear
5:54 AM 72.1 °F - 70.0 °F 93% 30.06 in 10.0 mi South 3.5 mph - N/A   Clear
6:13 AM 72.7 °F - 70.2 °F 92% 30.06 in 10.0 mi South 4.6 mph - N/A   Clear
6:34 AM 73.6 °F - 70.7 °F 91% 30.05 in 10.0 mi South 4.6 mph - N/A   Clear
6:54 AM 75.0 °F - 70.7 °F 86% 30.05 in 10.0 mi South 5.8 mph - N/A   Clear
7:13 AM 76.1 °F - 70.9 °F 84% 30.04 in 10.0 mi South 6.9 mph - N/A   Clear
7:34 AM 77.0 °F - 71.1 °F 82% 30.04 in 10.0 mi South 8.1 mph - N/A   Clear
7:54 AM 78.1 °F - 71.4 °F 80% 30.04 in 10.0 mi South 6.9 mph - N/A   Clear
8:14 AM 79.2 °F - 71.6 °F 78% 30.03 in 10.0 mi SSW 9.2 mph - N/A   Clear
8:34 AM 80.6 °F 84.6 °F 71.8 °F 74% 30.03 in 10.0 mi SSW 8.1 mph - N/A   Scattered Clouds
8:53 AM 81.5 °F 86.1 °F 72.1 °F 73% 30.02 in 10.0 mi SSW 8.1 mph 17.3 mph N/A   Scattered Clouds
9:14 AM 82.4 °F 87.4 °F 72.3 °F 71% 30.02 in 10.0 mi SSW 8.1 mph - N/A   Clear
9:34 AM 83.5 °F 89.1 °F 72.3 °F 69% 30.01 in 10.0 mi SSW 10.4 mph 16.1 mph N/A   Clear
9:53 AM 84.6 °F 90.7 °F 72.7 °F 67% 30.01 in 10.0 mi SSW 10.4 mph - N/A   Clear
10:14 AM 85.6 °F 92.2 °F 72.7 °F 65% 30.00 in 10.0 mi SSW 9.2 mph 17.3 mph N/A   Clear
10:33 AM 86.4 °F 93.0 °F 72.5 °F 63% 30.00 in 10.0 mi SW 11.5 mph 18.4 mph N/A   Clear
10:53 AM 86.9 °F 92.9 °F 71.6 °F 60% 30.00 in 10.0 mi SW 10.4 mph 21.9 mph N/A   Clear
11:14 AM 87.1 °F 93.2 °F 71.8 °F 60% 29.99 in 10.0 mi SW 10.4 mph 19.6 mph N/A   Clear
11:33 AM 87.8 °F 94.7 °F 72.3 °F 60% 29.99 in 10.0 mi SW 12.7 mph 17.3 mph N/A   Clear
11:54 AM 88.5 °F 94.4 °F 71.1 °F 56% 29.98 in 10.0 mi SW 15.0 mph 20.7 mph N/A   Clear
12:14 PM 88.9 °F 94.2 °F 70.5 °F 54% 29.97 in 10.0 mi SW 11.5 mph 20.7 mph N/A   Clear
12:33 PM 89.2 °F 94.9 °F 70.7 °F 54% 29.97 in 10.0 mi SW 11.5 mph 24.2 mph N/A   Clear
12:53 PM 90.0 °F 96.9 °F 72.0 °F 55% 29.97 in 10.0 mi SSW 13.8 mph 19.6 mph N/A   Clear
1:14 PM 90.5 °F 96.5 °F 70.7 °F 52% 29.96 in 10.0 mi SW 15.0 mph 21.9 mph N/A   Clear
1:34 PM 90.5 °F 96.0 °F 70.2 °F 51% 29.95 in 10.0 mi SSW 15.0 mph 20.7 mph N/A   Clear
1:51 PM 90.9 °F 97.8 °F 71.4 °F 53% 29.94 in 10.0 mi SSW 15.0 mph 24.2 mph N/A   Clear
2:14 PM 90.9 °F 97.8 °F 71.4 °F 53% 29.93 in 10.0 mi SSW 13.8 mph 20.7 mph N/A   Clear
2:34 PM 91.2 °F 97.0 °F 70.2 °F 50% 29.92 in 10.0 mi SSW 10.4 mph 19.6 mph N/A   Clear
2:53 PM 91.4 °F 97.3 °F 70.3 °F 50% 29.91 in 10.0 mi SSW 11.5 mph 21.9 mph N/A   Clear
3:14 PM 91.4 °F 96.8 °F 69.6 °F 49% 29.91 in 10.0 mi SSW 12.7 mph 23.0 mph N/A   Clear
3:33 PM 91.2 °F 97.0 °F 70.2 °F 50% 29.90 in 10.0 mi SSW 12.7 mph 21.9 mph N/A   Clear
3:53 PM 91.8 °F 98.1 °F 70.9 °F 50% 29.89 in 10.0 mi SSW 15.0 mph 23.0 mph N/A   Clear
4:13 PM 91.6 °F 97.7 °F 70.5 °F 50% 29.88 in 10.0 mi SW 13.8 mph 24.2 mph N/A   Clear
4:34 PM 91.6 °F 98.8 °F 71.4 °F 52% 29.87 in 10.0 mi SSW 12.7 mph 21.9 mph N/A   Clear
4:53 PM 91.4 °F 97.8 °F 70.9 °F 51% 29.87 in 10.0 mi SSW 11.5 mph 23.0 mph N/A   Clear
5:14 PM 91.0 °F 97.6 °F 71.2 °F 52% 29.86 in 10.0 mi SW 17.3 mph 21.9 mph N/A   Clear
5:34 PM 91.0 °F 98.7 °F 72.5 °F 54% 29.85 in 10.0 mi SSW 8.1 mph 16.1 mph N/A   Clear
5:54 PM 90.7 °F 97.9 °F 72.1 °F 54% 29.84 in 10.0 mi SSW 12.7 mph 19.6 mph N/A   Clear
6:13 PM 90.5 °F 97.0 °F 71.4 °F 53% 29.84 in 10.0 mi SSW 11.5 mph 18.4 mph N/A   Clear
6:34 PM 90.0 °F 96.4 °F 71.2 °F 54% 29.83 in 10.0 mi SW 11.5 mph 19.6 mph N/A   Clear
6:54 PM 89.6 °F 95.7 °F 70.9 °F 54% 29.83 in 10.0 mi SW 11.5 mph 19.6 mph N/A   Clear
7:14 PM 89.1 °F 95.0 °F 71.2 °F 55% 29.83 in 10.0 mi SSW 6.9 mph 16.1 mph N/A   Clear
7:33 PM 88.2 °F 95.0 °F 72.1 °F 59% 29.82 in 10.0 mi SSW 9.2 mph - N/A   Clear
7:54 PM 87.3 °F 93.6 °F 71.8 °F 60% 29.82 in 10.0 mi SSW 8.1 mph - N/A   Clear
8:14 PM 86.5 °F 92.5 °F 71.8 °F 61% 29.82 in 10.0 mi SSW 5.8 mph - N/A   Clear
8:34 PM 85.5 °F 91.1 °F 71.6 °F 63% 29.81 in 10.0 mi SSW 6.9 mph - N/A   Clear
8:53 PM 84.4 °F 90.0 °F 71.8 °F 66% 29.81 in 10.0 mi SSW 5.8 mph - N/A   Clear
9:14 PM 83.5 °F 88.8 °F 71.8 °F 68% 29.81 in 10.0 mi SSW 5.8 mph - N/A   Clear
9:34 PM 83.5 °F 88.5 °F 71.6 °F 67% 29.81 in 10.0 mi SSW 5.8 mph - N/A   Clear
9:53 PM 83.1 °F 88.1 °F 71.6 °F 68% 29.81 in 10.0 mi SSW 5.8 mph - N/A   Clear
10:14 PM 82.0 °F 86.7 °F 71.6 °F 71% 29.81 in 10.0 mi South 5.8 mph - N/A   Clear
10:34 PM 81.1 °F 85.0 °F 71.1 °F 71% 29.80 in 10.0 mi South 8.1 mph - N/A   Clear
10:54 PM 80.6 °F 84.4 °F 71.1 °F 73% 29.80 in 10.0 mi South 6.9 mph - N/A   Clear
11:13 PM 81.0 °F 85.1 °F 71.6 °F 73% 29.79 in 10.0 mi South 6.9 mph - N/A   Clear
11:34 PM 81.9 °F 86.4 °F 71.6 °F 71% 29.79 in 10.0 mi SSW 6.9 mph - N/A   Clear
11:54 PM 81.5 °F 85.9 °F 71.6 °F 72% 29.79 in 10.0 mi SSW 6.9 mph - N/A   Clear